Location: Big Sable Point
(44.0575°N, 86.5149°W)
Time: 16:14:52
(UTC-05:00)

N. Korean satellite - Visible Passes

Search period start: 18 November 2018 00:00
Search period end: 28 November 2018 00:00
Orbit: 457 x 511 km, 97.2° (Epoch: 18 November)

Date Brightness Start Highest point End Pass type
(mag) Time Alt. Az. Time Alt. Az. Time Alt. Az.
18 Nov 6.6 07:06:26 10° NNE 07:09:53 78° E 07:13:19 10° S visible
18 Nov 7.2 17:43:38 10° SE 17:46:55 34° ENE 17:50:11 10° N visible
18 Nov 9.8 19:18:17 10° SW 19:20:29 15° W 19:22:40 10° NW visible
19 Nov 8.3 06:42:09 10° NNE 06:45:21 35° E 06:48:31 10° SSE visible
19 Nov 8.7 18:52:39 10° SSW 18:55:51 29° W 18:59:00 10° NW visible
20 Nov 9.6 06:18:17 10° NE 06:20:42 18° E 06:23:06 10° SE visible
20 Nov 7.1 18:27:43 10° S 18:31:16 61° W 18:34:47 10° NNW visible
21 Nov 6.5 18:03:14 10° SSE 18:06:46 63° ENE 18:10:16 10° N visible
22 Nov 6.9 07:01:51 10° NNE 07:05:17 67° E 07:08:42 10° S visible
22 Nov 9.7 19:13:28 10° SW 19:15:52 17° W 19:18:14 10° NW visible
23 Nov 8.6 06:37:35 10° NNE 06:40:42 31° E 06:43:48 10° SSE visible
23 Nov 8.4 18:47:58 10° SSW 18:51:13 32° W 18:54:26 10° NNW visible
24 Nov 9.8 06:13:50 10° NE 06:16:02 16° E 06:18:14 10° SE visible
24 Nov 6.8 18:23:06 10° S 18:26:38 70° WSW 18:30:09 10° NNW visible
25 Nov 6.4 07:21:43 10° N 07:25:08 63° WNW 07:28:33 10° SSW visible
25 Nov 6.6 17:58:41 10° SSE 18:02:09 54° ENE 18:05:34 10° N visible
26 Nov 7.2 06:57:12 10° NNE 07:00:37 58° E 07:04:02 10° S visible
26 Nov 9.5 19:08:38 10° SW 19:11:11 19° W 19:13:44 10° NW visible
27 Nov 8.8 06:33:00 10° NE 06:36:01 27° E 06:39:02 10° SSE visible
27 Nov 8.2 18:43:15 10° SSW 18:46:33 36° W 18:49:48 10° NNW visible
